Location: R�serve Fauniques des Laurentides
(47.3100°N, 71.1900°W)
Time: 17:57:16
(UTC-05:00)

Amateur Radio Satellites - All Passes

Search period start: 27 January 2015 17:27
Search period end: 28 January 2015 17:27
Location: R�serve Fauniques des Laurentides, 47.3100°N, 71.1900°W

Satellite Date Start Highest point End Downlink Frequencies (MHz)
Time Altitude Azimuth
AO-7 27 Jan 17:33:01 17:34:49 10° 281° (WNW) 17:35:52 29.400- 29.500
PRISM 27 Jan 17:36:23 17:39:58 28° 95° (E) 17:43:37 437.425
SO-50 27 Jan 17:36:27 17:40:40 28° 36° (NE) 17:44:56 436.795
STRAND 1 27 Jan 17:41:08 17:44:47 20° 90° (E) 17:48:35 437.568
HO-68 27 Jan 17:41:15 17:46:01 20° 51° (NE) 17:51:00 435.675
YUBILEINY 27 Jan 17:55:39 18:01:36 22° 78° (ENE) 18:07:56 435.215
O/OREOS (USA 219) 27 Jan 17:56:32 18:00:00 21° 311° (NW) 18:03:25 437.305
MOZHAYETS 4 27 Jan 18:12:00 18:15:08 18° 298° (WNW) 18:18:08
CUBESAT XI-V 27 Jan 18:20:35 18:25:14 61° 100° (E) 18:29:54 437.345
CUTE 1.7 + AOD 2 27 Jan 18:21:28 18:23:39 14° 61° (ENE) 18:25:59 437.475
BRITE-PL 27 Jan 18:28:18 18:32:31 27° 63° (ENE) 18:37:06 437.365/2234.400
GOMX 1 27 Jan 18:33:47 18:37:42 23° 61° (ENE) 18:41:53 467.674
Cubesat XI-IV 27 Jan 18:42:22 18:45:40 16° 273° (W) 18:48:45 437.490
SEEDS 27 Jan 18:53:23 18:56:46 24° 66° (ENE) 19:00:12 437.485
DOVE 4 27 Jan 18:54:39 18:58:44 25° 63° (ENE) 19:03:03 437.250
CINEMA 3 27 Jan 18:56:47 18:59:47 17° 59° (ENE) 19:02:58 145.822/145.860
CUTE-I 27 Jan 19:05:47 19:06:38 10° 277° (W) 19:07:08 437.470
DX 1 27 Jan 19:10:39 19:11:21 10° 56° (ENE) 19:12:15 434.975-435.025
PRISM 27 Jan 19:11:52 19:15:31 29° 293° (WNW) 19:19:06 437.425
SO-50 27 Jan 19:16:44 19:21:37 63° 237° (WSW) 19:26:29 436.795
STRAND 1 27 Jan 19:19:22 19:24:28 61° 289° (WNW) 19:29:33 437.568
COMPASS 1 27 Jan 19:22:02 19:25:56 37° 70° (ENE) 19:29:52 437.405
HO-68 27 Jan 19:25:40 19:32:48 80° 71° (ENE) 19:40:00 435.675
UWE-3 27 Jan 19:28:56 19:31:42 16° 61° (ENE) 19:34:39 435.000/436.395/437.385
CANX-2 27 Jan 19:30:21 19:34:38 69° 74° (ENE) 19:38:55 2200.000
YUBILEINY 27 Jan 19:48:42 19:57:24 88° 279° (W) 20:06:12 435.215
AAUSAT CUBESAT 2 27 Jan 19:49:27 19:53:38 63° 74° (ENE) 19:57:49 437.432
Oscar 11 27 Jan 19:50:03 19:53:58 34° 69° (ENE) 19:57:57 145.826/435.025
CUTE 1.7 + AOD 2 27 Jan 19:54:48 19:59:06 74° 259° (W) 20:03:25 437.475
VELOX 1 27 Jan 19:54:48 19:56:12 12° 57° (ENE) 19:57:49 145.980
DELFI C3 27 Jan 19:55:43 19:59:18 31° 68° (ENE) 20:02:56 145.870
CUBESAT XI-V 27 Jan 19:59:01 20:02:18 19° 298° (WNW) 20:05:29 437.345
BRITE-PL 27 Jan 20:05:52 20:10:46 49° 263° (W) 20:16:03 437.365/2234.400
GOMX 1 27 Jan 20:10:22 20:15:23 60° 261° (W) 20:20:44 467.674
CUBEBUG 2 27 Jan 20:19:15 20:23:51 50° 71° (ENE) 20:28:31 437.445
UKube-1 27 Jan 20:24:08 20:28:17 47° 70° (ENE) 20:32:29 .
SEEDS 27 Jan 20:28:26 20:32:27 38° 263° (W) 20:36:26 437.485
DOVE 4 27 Jan 20:31:16 20:36:11 52° 262° (W) 20:41:21 437.250
CINEMA 3 27 Jan 20:31:26 20:36:23 81° 257° (WSW) 20:41:29 145.822/145.860
ZACube-1 27 Jan 20:34:56 20:39:23 51° 71° (ENE) 20:43:53 437.345
DX 1 27 Jan 20:42:34 20:46:54 76° 74° (ENE) 20:51:18 434.975-435.025
50 SAT 27 Jan 20:45:36 20:49:08 28° 67° (ENE) 20:52:42 437.505
FUNcube-1 27 Jan 20:47:23 20:51:56 66° 74° (ENE) 20:56:34 145.935
HUMSAT D 27 Jan 20:52:14 20:56:21 43° 70° (ENE) 21:00:31 437.325/437.525
AIST 1 27 Jan 20:53:35 20:55:54 14° 64° (ENE) 20:58:23
ESTCUBE 1 27 Jan 20:56:57 21:00:14 21° 63° (ENE) 21:03:38 437.505/2401.250
COMPASS 1 27 Jan 20:58:23 21:01:48 23° 268° (W) 21:05:09 437.405
AISAT 27 Jan 20:58:43 21:02:56 44° 70° (ENE) 21:07:13 437.250
STRAND 1 27 Jan 21:01:29 21:02:46 11° 307° (NW) 21:03:49 437.568
UWE-3 27 Jan 21:03:03 21:07:44 75° 258° (WSW) 21:12:29 435.000/436.395/437.385
CANX-2 27 Jan 21:08:58 21:11:08 13° 273° (W) 21:13:07 2200.000
HO-68 27 Jan 21:15:56 21:21:25 22° 271° (W) 21:26:41 435.675
Oscar 11 27 Jan 21:26:31 21:30:14 26° 266° (W) 21:33:55 145.826/435.025
AAUSAT CUBESAT 2 27 Jan 21:27:31 21:29:48 14° 272° (W) 21:31:54 437.432
VELOX 1 27 Jan 21:27:42 21:32:08 83° 75° (ENE) 21:36:37 145.980
DELFI C3 27 Jan 21:31:05 21:34:35 26° 266° (W) 21:38:02 145.870
NANOSAT C BR1 27 Jan 21:35:31 21:37:20 13° 87° (E) 21:39:21 145.865
SPROUT 27 Jan 21:36:40 21:38:34 13° 60° (ENE) 21:40:40 437.525
CUBEBUG 1 27 Jan 21:41:42 21:45:52 48° 71° (ENE) 21:50:07 437.445
QB50P2 27 Jan 21:48:00 21:50:51 17° 90° (E) 21:53:49 145.880/145.840
YUBILEINY 27 Jan 21:49:05 21:55:45 23° 304° (WNW) 22:02:10 435.215
UNISAT 6 27 Jan 21:54:43 21:58:46 32° 95° (E) 22:02:45 437.425
CUBEBUG 2 27 Jan 21:57:10 22:00:52 22° 270° (W) 22:04:30 437.445
QB50P1 27 Jan 21:57:39 22:00:57 21° 92° (E) 22:04:18 145.935-145.965
UKube-1 27 Jan 22:01:34 22:04:45 19° 269° (W) 22:07:50 .
POLYITAN 1 27 Jan 22:10:54 22:14:42 29° 95° (E) 22:18:30 437.675
ZACube-1 27 Jan 22:12:37 22:16:05 20° 270° (W) 22:19:28 437.345
CINEMA 3 27 Jan 22:12:55 22:14:32 11° 277° (W) 22:15:52 145.822/145.860
ISS 27 Jan 22:17:03 22:20:00 31° 143° (SE) 22:22:58 145.825
TISAT 1 27 Jan 22:17:43 22:21:25 30° 67° (ENE) 22:25:11 437.305
BUGSAT 1 27 Jan 22:18:18 22:21:56 27° 94° (E) 22:25:38 437.445
50 SAT 27 Jan 22:20:30 22:24:13 30° 265° (W) 22:27:53 437.505
DX 1 27 Jan 22:21:53 22:23:48 12° 273° (W) 22:25:30 434.975-435.025
FUNcube-1 27 Jan 22:25:58 22:28:49 16° 272° (W) 22:31:31 145.935
HUMSAT D 27 Jan 22:28:58 22:32:23 21° 269° (W) 22:35:43 437.325/437.525
AIST 1 27 Jan 22:29:48 22:34:07 65° 263° (W) 22:38:27
ANTELSAT 27 Jan 22:30:18 22:34:50 74° 102° (ESE) 22:39:13 437.575/2403.000
POPSAT HIP 1 27 Jan 22:31:39 22:35:50 46° 99° (E) 22:40:00 437.405
ESTCUBE 1 27 Jan 22:32:29 22:36:51 49° 261° (W) 22:41:14 437.505/2401.250
DUCHIFAT 1 27 Jan 22:35:19 22:39:32 50° 99° (E) 22:43:43 145.980
AISAT 27 Jan 22:36:19 22:39:48 22° 268° (W) 22:43:14 437.250
TIGRISAT 27 Jan 22:39:05 22:43:39 88° 104° (ESE) 22:48:02 435.000
VELOX 1 27 Jan 23:07:47 23:09:27 11° 274° (W) 23:10:50 145.980
NANOSAT C BR1 27 Jan 23:09:29 23:13:48 72° 287° (WNW) 23:18:06 145.865
SPROUT 27 Jan 23:09:47 23:14:07 82° 259° (W) 23:18:29 437.525
CUBEBUG 1 27 Jan 23:19:24 23:22:35 19° 270° (W) 23:25:39 437.445
QB50P2 27 Jan 23:22:55 23:27:08 52° 289° (WNW) 23:31:19 145.880/145.840
SWISSCUBE 27 Jan 23:31:12 23:35:25 33° 66° (ENE) 23:39:43 437.505
UNISAT 6 27 Jan 23:31:35 23:35:32 29° 294° (WNW) 23:39:20 437.425
QB50P1 27 Jan 23:32:57 23:37:03 42° 290° (WNW) 23:41:06 145.935-145.965
POLYITAN 1 27 Jan 23:46:48 23:50:40 31° 292° (WNW) 23:54:26 437.675
BEESAT 27 Jan 23:47:02 23:51:31 43° 69° (ENE) 23:56:02 436.000
ITUPSAT 1 27 Jan 23:49:50 23:54:20 44° 69° (ENE) 23:58:54 437.325
Oscar 19 27 Jan 23:53:01 23:54:40 12° 84° (E) 23:56:37 437.125/150
ISS 27 Jan 23:53:07 23:56:23 59° 341° (NNW) 23:59:40 145.825
TISAT 1 27 Jan 23:53:29 23:57:14 29° 265° (W) 00:00:59 437.305
BUGSAT 1 27 Jan 23:53:38 23:57:30 33° 292° (WNW) 00:01:20 437.445
GONETS M04 27 Jan 23:56:39 00:03:38 29° 82° (E) 00:10:50
POPSAT HIP 1 28 Jan 00:08:12 00:11:28 21° 296° (WNW) 00:14:38 437.405
ANTELSAT 28 Jan 00:08:29 00:11:06 15° 300° (WNW) 00:13:31 437.575/2403.000
DUCHIFAT 1 28 Jan 00:11:57 00:15:05 19° 297° (WNW) 00:18:07 145.980
TIGRISAT 28 Jan 00:17:40 00:19:46 13° 302° (WNW) 00:21:40 435.000
AUBIESAT-1 28 Jan 00:27:10 00:28:21 11° 56° (ENE) 00:29:39 437.475
STARS 28 Jan 00:33:01 00:36:05 19° 62° (ENE) 00:39:17 437.465
KKS-1 28 Jan 00:34:54 00:38:40 28° 66° (ENE) 00:42:32 437.445
O/OREOS (USA 219) 28 Jan 00:43:37 00:47:30 26° 52° (NE) 00:51:25 437.305
Gurwin Techsat 1B 28 Jan 00:53:27 00:54:27 11° 83° (E) 00:55:48 435.225
SWISSCUBE 28 Jan 01:09:02 01:13:19 32° 265° (W) 01:17:35 437.505
M-CUBED/EXP-1 PRIME 28 Jan 01:24:31 01:28:22 46° 67° (ENE) 01:31:58 437.505
BEESAT 28 Jan 01:25:38 01:29:35 25° 267° (W) 01:33:28 436.000
ITUPSAT 1 28 Jan 01:28:35 01:32:29 24° 268° (W) 01:36:18 437.325
Oscar 19 28 Jan 01:29:46 01:34:59 83° 104° (ESE) 01:40:08 437.125/150
ISS 28 Jan 01:30:09 01:33:16 37° 1° (N) 01:36:24 145.825
ITAMSAT 1 28 Jan 01:42:23 01:47:19 41° 97° (E) 01:52:16 435.822/435.867
GONETS M04 28 Jan 01:51:05 01:59:51 71° 283° (WNW) 02:08:35
BEESAT 2 28 Jan 01:57:23 02:00:49 26° 116° (ESE) 02:04:21 435.950
AUBIESAT-1 28 Jan 01:58:54 02:02:55 82° 251° (WSW) 02:06:37 437.475
DANDE 28 Jan 02:00:16 02:01:43 11° 73° (ENE) 02:03:51 436.750
MOZHAYETS 4 28 Jan 02:05:09 02:06:43 12° 58° (ENE) 02:08:29
STARS 28 Jan 02:07:50 02:12:13 56° 260° (W) 02:16:38 437.465
KKS-1 28 Jan 02:11:05 02:15:14 36° 263° (W) 02:19:24 437.445
HORYU 2 28 Jan 02:12:34 02:15:25 17° 90° (E) 02:18:23 437.375
BEESAT 3 28 Jan 02:12:36 02:16:27 40° 120° (ESE) 02:20:23 437.485
O/OREOS (USA 219) 28 Jan 02:22:45 02:27:07 43° 251° (WSW) 02:31:27 437.305
Gurwin Techsat 1B 28 Jan 02:30:09 02:35:30 75° 103° (ESE) 02:40:50 435.225
CUSAT 1 28 Jan 02:32:23 02:38:12 23° 82° (E) 02:44:25 437.405
RS-15 28 Jan 02:50:35 02:55:48 16° 98° (E) 03:01:49 29.354- 29.394
JAS-2 28 Jan 02:57:47 02:59:15 11° 85° (E) 03:01:10 435.910
M-CUBED/EXP-1 PRIME 28 Jan 03:00:52 03:03:34 17° 262° (W) 03:06:03 437.505
ISS 28 Jan 03:06:48 03:10:07 69° 21° (NNE) 03:13:25 145.825
Oscar 19 28 Jan 03:10:29 03:13:44 17° 302° (WNW) 03:16:49 437.125/150
ITAMSAT 1 28 Jan 03:22:08 03:26:44 31° 296° (WNW) 03:31:15 435.822/435.867
AIST 2 28 Jan 03:22:28 03:26:43 76° 125° (SE) 03:31:03 435.215
AO-7 28 Jan 03:29:19 03:37:10 44° 98° (E) 03:45:02 29.400- 29.500
BEESAT 2 28 Jan 03:34:55 03:38:53 42° 315° (NW) 03:42:54 435.950
DANDE 28 Jan 03:35:40 03:43:27 49° 91° (E) 03:51:41 436.750
MOZHAYETS 4 28 Jan 03:38:42 03:43:17 82° 75° (ENE) 03:47:54
HORYU 2 28 Jan 03:48:08 03:52:31 56° 288° (WNW) 03:56:51 437.375
BEESAT 3 28 Jan 03:51:02 03:54:43 29° 319° (NW) 03:58:24 437.485
GONETS M04 28 Jan 03:52:57 03:58:43 18° 308° (NW) 04:04:06
CUBESAT XI-V 28 Jan 03:53:12 03:54:55 12° 58° (ENE) 03:56:50 437.345
PCSat 28 Jan 03:57:56 04:02:51 38° 114° (ESE) 04:07:52 145.827
YUBILEINY 28 Jan 04:00:09 04:04:04 14° 46° (NE) 04:08:29 435.215
Gurwin Techsat 1B 28 Jan 04:11:15 04:14:58 19° 301° (WNW) 04:18:32 435.225
CUSAT 1 28 Jan 04:12:05 04:20:21 86° 100° (E) 04:28:47 437.405
PRISM 28 Jan 04:30:04 04:33:45 33° 68° (ENE) 04:37:29 437.425
JAS-2 28 Jan 04:39:48 04:45:20 74° 103° (ESE) 04:51:32 435.910
ISS 28 Jan 04:43:38 04:46:25 25° 219° (SW) 04:49:10 145.825
RS-15 28 Jan 04:55:26 05:06:08 66° 119° (ESE) 05:17:01 29.354- 29.394
STRAND 1 28 Jan 04:59:50 05:04:32 39° 67° (ENE) 05:09:17 437.568
AIST 2 28 Jan 05:02:32 05:05:52 21° 326° (NW) 05:09:08 435.215
Cubesat XI-IV 28 Jan 05:14:08 05:18:27 25° 92° (E) 05:22:53 437.490
BEESAT 2 28 Jan 05:16:40 05:18:14 12° 337° (NNW) 05:19:43 435.950
DANDE 28 Jan 05:18:58 05:27:02 49° 292° (WNW) 05:35:20 436.750
MOZHAYETS 4 28 Jan 05:19:16 05:21:14 12° 275° (W) 05:22:58
AO-7 28 Jan 05:22:10 05:30:10 51° 299° (WNW) 05:38:03 29.400- 29.500
CUBESAT XI-V 28 Jan 05:27:06 05:31:42 84° 76° (ENE) 05:36:21 437.345
CUTE-I 28 Jan 05:34:12 05:39:06 36° 96° (E) 05:44:03 437.470
PCSat 28 Jan 05:41:08 05:46:17 41° 313° (NW) 05:51:26 145.827
YUBILEINY 28 Jan 05:54:55 06:03:31 56° 73° (ENE) 06:12:09 435.215
CUSAT 1 28 Jan 05:57:25 06:04:27 28° 301° (WNW) 06:11:14 437.405
PRISM 28 Jan 06:05:56 06:09:22 25° 266° (W) 06:12:45 437.425
JAS-2 28 Jan 06:26:07 06:30:06 20° 299° (WNW) 06:34:10 435.910
STRAND 1 28 Jan 06:39:20 06:43:50 31° 265° (W) 06:48:20 437.568
HO-68 28 Jan 06:53:16 06:55:06 11° 81° (E) 06:57:28 435.675
Cubesat XI-IV 28 Jan 06:53:40 06:58:54 52° 291° (WNW) 07:04:06 437.490
CUBESAT XI-V 28 Jan 07:08:03 07:09:54 12° 275° (W) 07:11:30 437.345
DANDE 28 Jan 07:08:26 07:12:55 14° 315° (NW) 07:16:55 436.750
RS-15 28 Jan 07:08:34 07:19:07 49° 326° (NW) 07:29:51 29.354- 29.394
CUTE-I 28 Jan 07:14:17 07:19:13 37° 294° (WNW) 07:24:05 437.470
AO-7 28 Jan 07:16:39 07:21:11 16° 322° (NW) 07:25:25 29.400- 29.500
PCSat 28 Jan 07:28:32 07:31:15 14° 337° (NNW) 07:33:52 145.827
CUTE 1.7 + AOD 2 28 Jan 07:38:22 07:40:52 16° 88° (E) 07:43:31 437.475
YUBILEINY 28 Jan 07:52:13 08:00:06 38° 275° (W) 08:07:51 435.215
ANTELSAT 28 Jan 07:58:10 08:00:34 14° 59° (ENE) 08:03:08 437.575/2403.000
TIGRISAT 28 Jan 08:06:10 08:09:00 16° 61° (ENE) 08:11:59 435.000
BRITE-PL 28 Jan 08:07:17 08:12:51 50° 97° (E) 08:18:15 437.365/2234.400
GOMX 1 28 Jan 08:09:25 08:14:30 38° 94° (E) 08:19:25 467.674
SEEDS 28 Jan 08:10:01 08:13:37 28° 94° (E) 08:17:16 437.485
CINEMA 3 28 Jan 08:24:31 08:28:12 21° 89° (E) 08:31:53 145.822/145.860
DOVE 4 28 Jan 08:27:38 08:32:34 39° 95° (E) 08:37:19 437.250
DX 1 28 Jan 08:30:46 08:31:25 10° 85° (E) 08:32:19 434.975-435.025
NANOSAT C BR1 28 Jan 08:31:27 08:34:00 16° 61° (ENE) 08:36:42 145.865
FUNcube-1 28 Jan 08:36:20 08:36:43 10° 84° (E) 08:37:23 145.935
BEESAT 2 28 Jan 08:36:45 08:38:33 12° 25° (NNE) 08:40:25 435.950
HO-68 28 Jan 08:37:25 08:44:31 62° 102° (ESE) 08:51:37 435.675
COMPASS 1 28 Jan 08:38:08 08:42:09 45° 98° (E) 08:46:10 437.405
QB50P2 28 Jan 08:44:17 08:47:30 21° 64° (ENE) 08:50:47 145.880/145.840
VERMONT LUNAR 28 Jan 08:44:56 08:46:26 12° 156° (SSE) 08:48:00 437.305
CANX-2 28 Jan 08:48:37 08:52:53 89° 103° (ESE) 08:57:06 2200.000
UWE-3 28 Jan 08:51:16 08:54:25 19° 89° (E) 08:57:37 435.000/436.395/437.385
BEESAT 3 28 Jan 08:51:48 08:54:19 16° 30° (NNE) 08:56:54 437.485
QB50P1 28 Jan 08:53:43 08:57:13 25° 65° (ENE) 09:00:46 145.935-145.965
UNISAT 6 28 Jan 08:56:27 09:00:56 44° 70° (ENE) 09:05:25 437.425
AAUSAT CUBESAT 2 28 Jan 09:05:19 09:09:30 79° 102° (ESE) 09:13:39 437.432
POLYITAN 1 28 Jan 09:07:12 09:11:05 34° 68° (ENE) 09:15:02 437.675
DELFI C3 28 Jan 09:07:43 09:11:24 33° 96° (E) 09:15:06 145.870
Oscar 11 28 Jan 09:10:02 09:14:11 44° 98° (E) 09:18:18 145.826/435.025
BUGSAT 1 28 Jan 09:11:48 09:15:20 28° 67° (ENE) 09:18:58 437.445
CUTE 1.7 + AOD 2 28 Jan 09:13:04 09:17:14 55° 287° (WNW) 09:21:20 437.475
VELOX 1 28 Jan 09:17:07 09:19:05 13° 87° (E) 09:21:16 145.980
RS-15 28 Jan 09:25:13 09:34:47 32° 359° (N) 09:44:37 29.354- 29.394
POPSAT HIP 1 28 Jan 09:27:33 09:31:43 53° 72° (ENE) 09:35:58 437.405
DUCHIFAT 1 28 Jan 09:30:55 09:35:06 57° 73° (ENE) 09:39:20 145.980
ANTELSAT 28 Jan 09:32:03 09:36:47 86° 253° (WSW) 09:41:32 437.575/2403.000
SO-50 28 Jan 09:35:25 09:38:44 21° 113° (ESE) 09:42:16 436.795
PHONESAT 2.4 28 Jan 09:35:51 09:38:03 16° 159° (SSE) 09:40:19 2401.200-2431.200
TIGRISAT 28 Jan 09:40:33 09:45:16 74° 257° (WSW) 09:49:59 435.000
CUBEBUG 2 28 Jan 09:44:11 09:48:51 72° 102° (ESE) 09:53:19 437.445
UKube-1 28 Jan 09:44:38 09:48:57 56° 100° (E) 09:53:15 .
SEEDS 28 Jan 09:45:46 09:49:29 30° 292° (WNW) 09:53:09 437.485
BRITE-PL 28 Jan 09:46:11 09:51:07 30° 296° (WNW) 09:55:50 437.365/2234.400
GOMX 1 28 Jan 09:47:35 09:52:35 36° 294° (WNW) 09:57:22 467.674
50 SAT 28 Jan 09:56:45 10:00:17 28° 94° (E) 10:03:50 437.505
ZACube-1 28 Jan 09:57:02 10:01:31 69° 101° (ESE) 10:05:52 437.345
CINEMA 3 28 Jan 10:00:59 10:05:47 51° 289° (WNW) 10:10:21 145.822/145.860
GONETS M04 28 Jan 10:01:52 10:07:10 18° 51° (NE) 10:12:49
AIST 2 28 Jan 10:03:32 10:07:01 23° 36° (NE) 10:10:30 435.215
DX 1 28 Jan 10:03:59 10:08:25 89° 285° (WNW) 10:12:50 434.975-435.025
NANOSAT C BR1 28 Jan 10:05:12 10:09:27 64° 259° (WSW) 10:13:44 145.865
DOVE 4 28 Jan 10:05:33 10:10:14 32° 294° (WNW) 10:14:42 437.250
HUMSAT D 28 Jan 10:09:16 10:13:28 52° 99° (E) 10:17:34 437.325/437.525
FUNcube-1 28 Jan 10:09:24 10:13:55 90° 102° (ESE) 10:18:16 145.935
BEESAT 2 28 Jan 10:13:44 10:17:49 47° 47° (NE) 10:21:51 435.950
COMPASS 1 28 Jan 10:14:33 10:17:38 20° 296° (WNW) 10:20:35 437.405
QB50P2 28 Jan 10:19:02 10:23:10 45° 262° (W) 10:27:20 145.880/145.840
VERMONT LUNAR 28 Jan 10:20:58 10:23:53 25° 172° (S) 10:26:49 437.305
ESTCUBE 1 28 Jan 10:22:20 10:26:11 27° 94° (E) 10:30:04 437.505/2401.250
AISAT 28 Jan 10:22:53 10:27:23 58° 101° (E) 10:31:50 437.250
HO-68 28 Jan 10:25:42 10:31:54 32° 302° (WNW) 10:37:59 435.675
CANX-2 28 Jan 10:26:43 10:28:14 12° 301° (WNW) 10:29:34 2200.000
UWE-3 28 Jan 10:26:54 10:31:22 51° 289° (WNW) 10:35:39 435.000/436.395/437.385
QB50P1 28 Jan 10:29:00 10:32:59 36° 263° (W) 10:36:58 145.935-145.965
BEESAT 3 28 Jan 10:29:02 10:33:13 71° 51° (NE) 10:37:20 437.485
UNISAT 6 28 Jan 10:34:05 10:37:56 24° 268° (W) 10:41:42 437.425
AAUSAT CUBESAT 2 28 Jan 10:42:46 10:44:39 13° 300° (WNW) 10:46:21 437.432
DELFI C3 28 Jan 10:43:14 10:46:33 24° 294° (WNW) 10:49:48 145.870
POLYITAN 1 28 Jan 10:43:25 10:47:07 26° 266° (W) 10:50:46 437.675
Oscar 11 28 Jan 10:46:48 10:50:08 22° 296° (WNW) 10:53:22 145.826/435.025
BUGSAT 1 28 Jan 10:47:12 10:50:49 29° 265° (W) 10:54:28 437.445
VELOX 1 28 Jan 10:51:47 10:56:19 76° 286° (WNW) 11:00:48 145.980
SPROUT 28 Jan 10:54:54 10:57:15 15° 88° (E) 10:59:47 437.525
PCSat 28 Jan 10:59:34 11:03:05 17° 29° (NNE) 11:06:40 145.827
AIST 1 28 Jan 11:02:29 11:06:40 62° 96° (E) 11:10:54
CUBEBUG 1 28 Jan 11:03:37 11:08:03 64° 101° (ESE) 11:12:29 437.445
POPSAT HIP 1 28 Jan 11:05:07 11:08:01 17° 271° (W) 11:10:47 437.405
DUCHIFAT 1 28 Jan 11:08:41 11:11:24 16° 271° (W) 11:13:58 145.980
Oscar 19 28 Jan 11:11:48 11:15:59 26° 63° (ENE) 11:20:15 437.125/150
PHONESAT 2.4 28 Jan 11:12:53 11:16:00 27° 175° (S) 11:19:09 2401.200-2431.200
ANTELSAT 28 Jan 11:13:00 11:14:24 11° 276° (W) 11:15:31 437.575/2403.000
SO-50 28 Jan 11:14:19 11:18:54 62° 312° (NW) 11:23:40 436.795
UKube-1 28 Jan 11:21:44 11:24:46 18° 298° (WNW) 11:27:41 .
CUBEBUG 2 28 Jan 11:22:09 11:25:01 16° 300° (WNW) 11:27:42 437.445
ITAMSAT 1 28 Jan 11:27:13 11:29:53 15° 56° (NE) 11:32:44 435.822/435.867
50 SAT 28 Jan 11:31:52 11:35:25 28° 292° (WNW) 11:38:51 437.505
ZACube-1 28 Jan 11:34:40 11:37:24 16° 300° (WNW) 11:39:58 437.345
TISAT 1 28 Jan 11:34:48 11:38:45 34° 96° (E) 11:42:42 437.305
RS-15 28 Jan 11:40:03 11:50:40 46° 31° (NNE) 12:01:47 29.354- 29.394
AIST 2 28 Jan 11:41:46 11:46:01 62° 237° (WSW) 11:50:12 435.215
DX 1 28 Jan 11:42:11 11:44:04 12° 302° (WNW) 11:45:47 434.975-435.025
HUMSAT D 28 Jan 11:45:56 11:48:55 18° 297° (WNW) 11:51:47 437.325/437.525
FUNcube-1 28 Jan 11:47:40 11:49:37 12° 302° (WNW) 11:51:23 145.935
BEESAT 2 28 Jan 11:52:28 11:55:48 23° 245° (WSW) 11:59:01 435.950
GONETS M04 28 Jan 11:57:21 12:06:03 70° 77° (ENE) 12:14:44
VERMONT LUNAR 28 Jan 11:58:36 12:01:29 24° 189° (S) 12:04:23 437.305
ESTCUBE 1 28 Jan 11:59:00 12:03:10 36° 292° (WNW) 12:07:17 437.505/2401.250
AISAT 28 Jan 12:00:26 12:03:38 19° 298° (WNW) 12:06:42 437.250
BEESAT 3 28 Jan 12:08:30 12:10:54 15° 248° (WSW) 12:13:07 437.485
Gurwin Techsat 1B 28 Jan 12:16:00 12:20:14 25° 62° (ENE) 12:24:35 435.225
SPROUT 28 Jan 12:29:31 12:33:52 64° 287° (WNW) 12:38:10 437.525
VELOX 1 28 Jan 12:30:57 12:32:11 11° 303° (WNW) 12:33:14 145.980
DANDE 28 Jan 12:37:34 12:38:10 10° 39° (NE) 12:39:07 436.750
CUBEBUG 1 28 Jan 12:41:07 12:44:01 17° 299° (WNW) 12:46:46 437.445
AO-7 28 Jan 12:42:13 12:48:05 22° 46° (NE) 12:54:10 29.400- 29.500
PCSat 28 Jan 12:42:16 12:47:39 62° 52° (NE) 12:53:03 145.827
AIST 1 28 Jan 12:42:25 12:44:52 15° 296° (WNW) 12:47:12
Oscar 19 28 Jan 12:50:01 12:55:05 51° 261° (W) 13:00:10 437.125/150
PHONESAT 2.4 28 Jan 12:51:07 12:54:03 23° 192° (SSW) 12:56:59 2401.200-2431.200
SO-50 28 Jan 12:57:18 13:00:27 17° 334° (NNW) 13:03:34 436.795
ITAMSAT 1 28 Jan 13:03:30 13:08:41 84° 72° (ENE) 13:13:55 435.822/435.867
SWISSCUBE 28 Jan 13:05:36 13:10:17 51° 100° (E) 13:14:57 437.505
CUSAT 1 28 Jan 13:10:01 13:14:10 17° 50° (NE) 13:17:58 437.405
TISAT 1 28 Jan 13:10:51 13:14:29 26° 294° (WNW) 13:18:03 437.305
HORYU 2 28 Jan 13:13:55 13:17:32 25° 64° (ENE) 13:21:13 437.375
BEESAT 28 Jan 13:21:35 13:26:21 67° 102° (ESE) 13:31:06 436.000
ITUPSAT 1 28 Jan 13:24:47 13:29:35 70° 102° (ESE) 13:34:23 437.325
VERMONT LUNAR 28 Jan 13:37:41 13:38:56 11° 205° (SSW) 13:40:07 437.305
RS-15 28 Jan 13:52:48 14:04:06 76° 238° (WSW) 14:15:52 29.354- 29.394
Gurwin Techsat 1B 28 Jan 13:54:45 13:59:57 53° 260° (W) 14:05:10 435.225
GONETS M04 28 Jan 13:55:06 14:02:16 29° 278° (W) 14:09:12
STARS 28 Jan 13:55:17 13:58:43 22° 92° (E) 14:02:13 437.465
KKS-1 28 Jan 13:58:56 14:03:03 34° 96° (E) 14:07:11 437.445
DANDE 28 Jan 14:17:28 14:24:21 43° 66° (ENE) 14:29:40 436.750
PCSat 28 Jan 14:26:24 14:30:43 24° 251° (WSW) 14:34:53 145.827
AO-7 28 Jan 14:31:22 14:39:43 75° 67° (ENE) 14:48:06 29.400- 29.500
M-CUBED/EXP-1 PRIME 28 Jan 14:39:00 14:41:17 17° 99° (E) 14:43:40 437.505
SWISSCUBE 28 Jan 14:44:08 14:47:52 23° 297° (WNW) 14:51:31 437.505
ITAMSAT 1 28 Jan 14:46:08 14:48:58 14° 274° (W) 14:51:35 435.822/435.867
HORYU 2 28 Jan 14:49:45 14:54:02 41° 262° (W) 14:58:19 437.375
CUSAT 1 28 Jan 14:51:58 14:58:48 85° 76° (ENE) 15:03:50 437.405
JAS-2 28 Jan 14:56:12 15:01:17 42° 68° (ENE) 15:06:11 435.910
BEESAT 28 Jan 15:00:30 15:03:46 18° 300° (WNW) 15:06:54 436.000
O/OREOS (USA 219) 28 Jan 15:00:56 15:03:18 15° 100° (E) 15:05:51 437.305
ITUPSAT 1 28 Jan 15:03:51 15:07:02 17° 300° (WNW) 15:10:04 437.325
AUBIESAT-1 28 Jan 15:12:23 15:15:31 38° 105° (ESE) 15:18:43 437.475
CUTE-I 28 Jan 15:22:38 15:25:12 14° 55° (NE) 15:27:59 437.470
STARS 28 Jan 15:31:11 15:35:26 43° 291° (WNW) 15:39:38 437.465
MOZHAYETS 4 28 Jan 15:32:01 15:34:42 16° 88° (E) 15:37:33
KKS-1 28 Jan 15:35:45 15:39:38 28° 294° (WNW) 15:43:27 437.445
DANDE 28 Jan 16:01:19 16:07:41 36° 273° (W) 16:12:33 436.750
RS-15 28 Jan 16:06:55 16:14:56 21° 259° (WSW) 16:22:31 29.354- 29.394
M-CUBED/EXP-1 PRIME 28 Jan 16:13:28 16:16:27 31° 296° (WNW) 16:19:26 437.505
SO-50 28 Jan 16:22:42 16:25:35 16° 23° (NNE) 16:28:35 436.795
AO-7 28 Jan 16:26:22 16:33:23 28° 269° (W) 16:40:12 29.400- 29.500
CUSAT 1 28 Jan 16:36:51 16:40:32 16° 283° (WNW) 16:43:31 437.405
O/OREOS (USA 219) 28 Jan 16:37:44 16:42:12 69° 297° (WNW) 16:46:45 437.305
Cubesat XI-IV 28 Jan 16:39:07 16:44:17 54° 70° (ENE) 16:49:31 437.490
JAS-2 28 Jan 16:41:59 16:46:39 28° 266° (W) 16:51:04 435.910
AUBIESAT-1 28 Jan 16:48:11 16:50:16 15° 301° (WNW) 16:52:16 437.475
CUTE-I 28 Jan 16:59:12 17:04:31 78° 74° (ENE) 17:09:54 437.470
MOZHAYETS 4 28 Jan 17:07:55 17:12:27 63° 287° (WNW) 17:16:58
YUBILEINY 28 Jan 17:11:10 17:12:59 11° 70° (ENE) 17:15:30 435.215
